This demonstration page uses our WeatherBlox Daily Observations layout. Learn more.

Left ArrowRight Arrow

Hourly Observations for August 31, 2022

Temp ( °F °C ) Dew Point ( °F °C ) Humidity (%) Winds ( mph kmh ) Pressure ( in mb ) Visibility ( mi km ) Precip ( " mm )
12:15 am 00:15 Clear 64 17.9 55 12.9 73 73 SSE 7 11 30.09 1019 10 16 0.00 0.00
12:35 am 00:35 Clear 63 17.2 55 13 76 76 S 7 11 30.10 1019 10 16 0.00 0.00
12:55 am 00:55 Clear 63 17.2 55 13 76 76 S 8 13 30.10 1019 10 16 0.00 0.00
1:15 am 01:15 Clear 63 17.3 55 12.8 75 75 S 8 13 30.09 1019 10 16 0.00 0.00
1:35 am 01:35 Clear 63 17 55 12.7 76 76 S 7 11 30.09 1019 10 16 0.00 0.00
1:55 am 01:55 Clear 61 16.2 55 12.6 79 79 S 6 9 30.10 1019 10 16 0.00 0.00
2:15 am 02:15 Clear 60 15.7 55 12.6 82 82 S 6 9 30.10 1019 10 16 0.00 0.00
2:35 am 02:35 Clear 59 15.2 55 12.6 84 84 S 6 9 30.11 1020 10 16 0.00 0.00
2:55 am 02:55 Clear 60 15.6 55 12.6 82 82 S 6 9 30.09 1019 10 16 0.00 0.00
3:15 am 03:15 Clear 60 15.4 55 12.5 83 83 S 5 7 30.09 1019 10 16 0.00 0.00
3:35 am 03:35 Clear 59 15 54 12.4 84 84 S 5 7 30.10 1019 10 16 0.00 0.00
3:55 am 03:55 Clear 59 15 55 12.5 85 85 SSW 6 9 30.10 1019 10 16 0.00 0.00
4:15 am 04:15 Clear 62 16.4 55 12.5 78 78 SW 7 11 30.08 1019 10 16 0.00 0.00
4:35 am 04:35 Clear 63 17.2 54 12.2 72 72 SW 8 13 30.08 1019 10 16 0.00 0.00
4:55 am 04:55 Clear 63 17.2 54 12 71 71 SW 7 11 30.07 1018 10 16 0.00 0.00
5:15 am 05:15 Clear 62 16.6 53 11.7 73 73 SW 6 9 30.08 1019 10 16 0.00 0.00
5:35 am 05:35 Clear 62 16.7 53 11.6 72 72 SW 5 7 30.08 1019 10 16 0.00 0.00
5:55 am 05:55 Clear 62 16.8 53 11.6 71 71 SW 6 9 30.07 1018 10 16 0.00 0.00
6:15 am 06:15 Clear 64 17.5 53 11.7 69 69 WSW 6 9 30.07 1018 10 16 0.00 0.00
6:35 am 06:35 Clear 65 18.4 53 11.7 65 65 WSW 6 9 30.06 1018 10 16 0.00 0.00
6:55 am 06:55 Clear 65 18.2 53 11.7 66 66 WSW 6 9 30.06 1018 10 16 0.00 0.00
7:15 am 07:15 Sunny 64 17.8 53 11.8 68 68 WSW 7 11 30.07 1018 10 16 0.00 0.00
7:35 am 07:35 Sunny 66 18.7 54 12 65 65 SW 8 13 30.06 1018 10 16 0.00 0.00
7:55 am 07:55 Sunny 68 20 54 12.3 61 61 SW 8 13 30.05 1018 10 16 0.00 0.00
8:15 am 08:15 Sunny 70 21.2 55 12.7 58 58 SW 9 15 30.04 1017 10 16 0.00 0.00
8:35 am 08:35 Sunny 72 22.1 55 12.9 56 56 SW 10 17 30.03 1017 10 16 0.00 0.00
8:55 am 08:55 Sunny 73 23 55 12.9 53 53 SW 13 20 30.03 1017 10 16 0.00 0.00
9:15 am 09:15 Sunny 75 23.7 56 13.5 53 53 SW 9 15 30.02 1016 10 16 0.00 0.00
9:35 am 09:35 Sunny 76 24.6 58 14.4 53 53 SSW 10 17 30.01 1016 10 16 0.00 0.00
9:55 am 09:55 Sunny 77 25 58 14.5 52 52 SW 10 17 30.01 1016 10 16 0.00 0.00
10:15 am 10:15 Sunny 78 25.5 59 15 52 52 SW 8 13 30.00 1016 10 16 0.00 0.00
10:35 am 10:35 Sunny 80 26.6 61 15.9 52 52 SW 8 13 29.99 1016 10 16 0.00 0.00
10:55 am 10:55 Sunny 81 27.1 61 15.9 50 50 SW 9 15 29.98 1015 10 16 0.00 0.00
11:15 am 11:15 Sunny 82 28 61 16.2 49 49 SW 8 13 29.97 1015 10 16 0.00 0.00
11:35 am 11:35 Sunny 84 28.9 61 16.3 47 47 WSW 9 15 29.97 1015 10 16 0.00 0.00
11:55 am 11:55 Sunny 86 29.8 63 17.1 46 46 SSW 9 15 29.97 1015 10 16 0.00 0.00
12:15 pm 12:15 Sunny 87 30.8 63 17.4 45 45 SW 8 13 29.95 1014 10 16 0.00 0.00
12:35 pm 12:35 Sunny 90 32 65 18.1 44 44 SW 8 13 29.94 1014 10 16 0.00 0.00
12:55 pm 12:55 Sunny 91 32.6 64 17.5 41 41 SW 10 17 29.92 1013 10 16 0.00 0.00
1:15 pm 13:15 Sunny 92 33.3 58 14.6 32 32 SSW 7 11 29.90 1013 10 16 0.00 0.00
1:35 pm 13:35 Sunny 94 34.3 57 13.8 29 29 SSW 12 19 29.89 1012 10 16 0.00 0.00
1:55 pm 13:55 Sunny 93 33.9 60 15.3 33 33 S 10 17 29.89 1012 10 16 0.00 0.00
2:15 pm 14:15 Sunny 94 34.3 56 13.5 29 29 S 12 19 29.88 1012 10 16 0.00 0.00
2:35 pm 14:35 Sunny 94 34.5 59 15.2 32 32 S 9 15 29.88 1012 10 16 0.00 0.00
2:55 pm 14:55 Sunny 95 34.8 58 14.6 30 30 S 13 20 29.87 1012 10 16 0.00 0.00
3:15 pm 15:15 Sunny 95 34.8 57 14 29 29 S 10 17 29.86 1011 10 16 0.00 0.00
3:35 pm 15:35 Sunny 95 34.8 58 14.3 29 29 S 13 20 29.84 1011 10 16 0.00 0.00
3:55 pm 15:55 Sunny 94 34.7 56 13.1 27 27 S 10 17 29.83 1010 10 16 0.00 0.00
4:15 pm 16:15 Sunny 95 34.8 56 13.4 28 28 S 10 17 29.83 1010 10 16 0.00 0.00
4:35 pm 16:35 Sunny 95 35 56 13.4 27 27 S 10 17 29.82 1010 10 16 0.00 0.00
4:55 pm 16:55 Sunny 94 34.7 58 14.2 29 29 S 9 15 29.82 1010 10 16 0.00 0.00
5:15 pm 17:15 Sunny with Nearby Thunderstorms 94 34.6 57 13.8 29 29 S 9 15 29.82 1010 10 16 0.00 0.00
5:35 pm 17:35 Sunny 91 32.5 57 13.8 32 32 S 8 13 29.84 1010 10 16 0.00 0.00
5:55 pm 17:55 Sunny 88 31.3 59 15 37 37 SSW 6 9 29.87 1011 10 16 0.00 0.00
6:15 pm 18:15 Sunny 80 26.6 56 13.2 44 44 NNW 22 35 29.93 1014 10 16 0.00 0.00
6:35 pm 18:35 Sunny 79 25.9 56 13.3 46 46 NNW 23 37 29.94 1014 10 16 0.00 0.00
6:55 pm 18:55 Sunny with Light Rain 76 24.3 57 14.1 53 53 NNW 22 35 29.95 1014 10 16 0.00 0.00
7:15 pm 19:15 Partly Cloudy 75 24 57 14 54 54 NNW 21 33 29.97 1015 10 16 0.00 0.00
7:35 pm 19:35 Cloudy with Nearby Thunderstorms 74 23.2 58 14.2 57 57 NNW 14 22 29.99 1016 10 16 0.00 0.00
7:55 pm 19:55 Cloudy with Light Rain 70 21.3 59 15 67 67 NNW 16 26 29.99 1016 10 16 0.00 0.00
8:15 pm 20:15 Cloudy with Nearby Thunderstorms 69 20.7 60 15.7 73 73 WNW 10 17 30.03 1017 10 16 0.00 0.00
8:35 pm 20:35 Cloudy with Thunderstorms 67 19.7 61 16.2 80 80 Calm 30.07 1018 7 11 0.01 0.25
8:55 pm 20:55 Cloudy with Light Rain 69 20.5 61 16.1 76 76 WSW 8 13 30.04 1017 10 16 0.02 0.51
9:15 pm 21:15 Cloudy with Light Rain 68 20 61 15.9 77 77 SSE 20 31 30.03 1017 10 16 0.02 0.51
9:35 pm 21:35 Cloudy with Rain 69 20.5 58 14.3 68 68 SE 28 44 29.96 1015 7 11 0.04 1.02
9:55 pm 21:55 Mostly Cloudy 71 21.5 56 13.6 61 61 SE 16 26 29.93 1014 10 16 0.04 1.02
10:15 pm 22:15 Partly Cloudy 72 22.2 57 13.7 59 59 S 16 26 29.95 1014 10 16 0.00 0.00
10:35 pm 22:35 Clear 71 21.8 57 13.8 60 60 SE 12 19 29.94 1014 10 16 0.00 0.00
10:55 pm 22:55 Clear 70 21 58 14.3 66 66 S 9 15 29.95 1014 10 16 0.00 0.00
11:15 pm 23:15 Clear 70 21.2 57 14.1 64 64 S 8 13 29.95 1014 10 16 0.00 0.00
11:35 pm 23:35 Clear 69 20.6 59 14.8 69 69 SSW 8 13 29.94 1014 10 16 0.00 0.00
11:55 pm 23:55 Clear 69 20.4 59 15 71 71 SW 6 9 29.96 1014 10 16 0.00 0.00

Powered by AerisWeather